Charlottetown, Prince Edward Island

4:22 AM ADT on July 26, 2017 (GMT -0300)
Charlottetown

Weather History for CYYG - October, 2011

Change the Weather History Date:

Sunday, October 23, 2011

  Actual Average Record
Temperature  
Mean Temperature 49 °F -  
Max Temperature 56 °F 46 °F 68 °F (2007)
Min Temperature 41 °F 32 °F 28 °F (1997)
Degree Days  
Heating Degree Days 16    
Moisture  
Dew Point 46 °F    
Average Humidity 85    
Maximum Humidity 100    
Minimum Humidity 57    
Precipitation  
Precipitation 0.00 in 0.16 in - ()
Sea Level Pressure  
Sea Level Pressure 30.00 in    
Wind  
Wind Speed 4 mph ()    
Max Wind Speed 8 mph    
Max Gust Speed -    
Visibility 15.0 miles    
Events Fog , Rain    
Averages and records for this station are not official NWS values.
T = Trace of Precipitation, MM = Missing Value Source: Averaged Metar Reports

Daily Weather History Graph

Daily Weather History Graph

Search for Another Location

Airport or City:

Trip Planner

Search our weather history database for the weather conditions in past years. The results will help you decide how hot, cold, wet, or windy it might be!

Date:

Astronomy

Oct. 23, 2011 Rise Set
Actual Time 7:40 AM ADT 6:12 PM ADT
Civil Twilight 7:09 AM ADT 6:43 PM ADT
Nautical Twilight 6:34 AM ADT 7:18 PM ADT
Astronomical Twilight 5:59 AM ADT 7:53 PM ADT
Moon 3:30 AM ADT (10/23) 4:10 PM ADT (10/23)
Length of Visible Light 11h 33m
Length of Day
10h 32m
Waning Crescent, 15% of the Moon is Illuminated
Oct 23
Waning Crescent
Oct 26
New
Nov 2
First Quarter
Nov 10
Full
Nov 18
Last Quarter

Hourly Weather History & Observations

Time (ADT) Temp. Dew Point Humidity Pressure Visibility Wind Dir Wind Speed Gust Speed Precip Events Conditions
12:00 AM 53.6 °F 48.2 °F 82% 29.96 in 15.0 mi SW 3.5 mph - N/A   Overcast
1:00 AM 51.8 °F 48.2 °F 88% 29.95 in 15.0 mi SW 3.5 mph - N/A   Overcast
2:00 AM 51.8 °F 48.2 °F 88% 29.94 in 15.0 mi SSW 3.5 mph - N/A   Overcast
3:00 AM 52 °F 49 °F 84% 29.94 in 15 mi SSW 4.6 mph - -   Overcast
4:00 AM 51.8 °F 48.2 °F 88% 29.94 in 15.0 mi WSW 4.6 mph - N/A   Overcast
4:28 AM 51.8 °F - N/A% - 15.0 mi WSW 5.8 mph - N/A Rain Light Rain Showers
4:54 AM 51.8 °F - N/A% - 15.0 mi SW 5.8 mph - N/A   Overcast
5:00 AM 51.8 °F 48.2 °F 88% 29.95 in 15.0 mi SW 5.8 mph - N/A   Overcast
6:00 AM 51.8 °F 50.0 °F 94% 29.95 in 15.0 mi WSW 5.8 mph - N/A   Overcast
7:00 AM 51.8 °F 48.2 °F 88% 29.94 in 15.0 mi WSW 4.6 mph - N/A   Overcast
8:00 AM 51.8 °F 48.2 °F 88% 29.96 in 15.0 mi West 5.8 mph - N/A   Overcast
8:09 AM 51.8 °F - N/A% - 15.0 mi West 5.8 mph - N/A   Overcast
9:00 AM 51 °F 48 °F 85% 29.98 in 15 mi West 6.9 mph - -   Overcast
9:00 AM 51.8 °F 48.2 °F 88% 29.98 in 15.0 mi WSW 6.9 mph - N/A   Overcast
9:38 AM 51.8 °F - N/A% - 15.0 mi WSW 6.9 mph - N/A   Overcast
10:00 AM 51.8 °F 48.2 °F 88% 29.99 in 15.0 mi West 5.8 mph - N/A   Overcast
10:07 AM 51.8 °F - N/A% - 15.0 mi West 4.6 mph - N/A   Overcast
11:19 AM 51.8 °F - N/A% - 15.0 mi WNW 8.1 mph - N/A   Overcast
12:00 PM 53.6 °F 48.2 °F 82% 30.01 in 15.0 mi WNW 6.9 mph - N/A   Overcast
2:00 PM 55.4 °F 46.4 °F 72% 30.01 in 15.0 mi West 8.1 mph - N/A   Mostly Cloudy
3:00 PM 56 °F 45 °F 57% 30.01 in 15 mi NW 6.9 mph - -   Partly Cloudy
3:00 PM 55.4 °F 44.6 °F 67% 30.01 in 15.0 mi NW 5.8 mph - N/A   Mostly Cloudy
5:00 PM 53.6 °F 46.4 °F 77% 30.04 in 15.0 mi Calm Calm - N/A   Scattered Clouds
6:00 PM 50.0 °F 46.4 °F 87% 30.05 in 15.0 mi North 3.5 mph - N/A   Scattered Clouds
7:00 PM 46.4 °F 44.6 °F 93% 30.06 in 15.0 mi NNW 2.3 mph - N/A   Partly Cloudy
7:48 PM 44.6 °F - N/A% - 15.0 mi North 2.3 mph - N/A Fog Shallow Fog
8:00 PM 42.8 °F 42.8 °F 100% 30.08 in 15.0 mi North 2.3 mph - N/A Fog Shallow Fog
9:00 PM 43 °F 41 °F 90% 30.08 in 15 mi Calm Calm - -   Scattered Clouds
9:00 PM 42.8 °F 41.0 °F 93% 30.08 in 15.0 mi Calm Calm - N/A   Partly Cloudy
10:00 PM 41.0 °F 39.2 °F 93% 30.10 in 15.0 mi Calm Calm - N/A   Partly Cloudy